www.pogodaiklimat.ru

Погода и климат >> Архив погоды >> Аргентина >> Сан-Хуан


ПОГОДА в Сан-Хуане

  • Прогноз погоды в Сан-Хуане
  • Монитор погоды в Сан-Хуане

АРХИВ ПОГОДЫ в Сан-Хуане

Время (UTC), дата Ветер
(напр.,м/с)
 
Видим.   Явления Облачность Т
(С)
Тd
(С)
f
(%)
Тe
(С)
Тes
(С)
Комфортность P
(гПа)
Po
(гПа)
Тmin
(С)
Tmax
(С)
R
(мм)
R24
(мм)
S
(см)
06 20.05 ЮЗ 2 15 км 8/0
[Ac As]
+10.6 +6.0 73 +10 +10 1013.4 944.5
09 20.05 Ю 1 15 км 10/0
[Ac As]
+11.0 +6.0 71 +11 +11 1012.7 943.8
12 20.05 Ю 3 15 км 9/0
[Ac As]
+11.6 +6.7 72 +10 +10 1014.5 945.2 +10.0 +15.0
15 20.05 ЮВ 6 15 км 8/3 1200 м
[Sc Ac As]
+14.6 +7.1 61 +13 +14 1016.1 946.6
18 20.05 Ю 9 15 км 5/3 1200 м
[Sc Ac As]
+17.0 +5.6 47 +16 +16 1014.1 945.0
21 20.05 Ю 12 15 км 10/6 900 м
[Sc Ac As]
+10.6 +4.6 66 +6 +6 1018.5 948.4
00 21.05 Ю 9 15 км 10/8 600 м
[Cu Sc Ac As]
+8.6 +3.2 69 +4 +4 1022.7 952.1 +8.6 +17.2
03 21.05 Ю 8 15 км 10/9 600 м
[Cu Sc Ac As]
+6.8 +1.5 69 +2 +2 1025.3 954.6
06 21.05 Ю 7 15 км 10/9 600 м
[Cu Sc Ac As]
+5.3 +1.7 78 -0 -0 1026.5 955.8
09 21.05 Ю 5 15 км 10/10 600 м
[Cu Sc]
+5.2 +2.3 82 +1 +1 1028.0 956.5
12 21.05 Ю 3 5000 м слаб. морось 10/8 750 м
[Frnb As op]
+4.8 +3.4 91 +1 +1 1029.8 957.8 +4.8 +8.6 0.0
15 21.05 Ю 6 15 км {морось} 10/8 900 м
[Frnb Ac As]
+6.4 +3.7 83 +2 +2 1030.9 958.9
18 21.05 Ю 6 15 км {морось} 10/10 450 м
[St]
+7.0 +2.8 75 +3 +3 1029.5 957.4 0.0
21 21.05 Ю 6 10 км слаб. морось 10/10 450 м
[St]
+6.4 +3.7 83 +2 +2 1029.8 957.7
00 22.05 штиль 0 15 км 9/9 900 м
[Sc]
+5.2 +3.8 91 +4 +4 1031.0 958.6 +4.8 +8.0 0.0
03 22.05 штиль 0 15 км 10/10 900 м
[Cu Sc]
+5.2 +3.6 89 +4 +4 1031.8 959.4
06 22.05 штиль 0 15 км 10/10 900 м
[Cu Sc]
+5.1 +4.0 93 +4 +4 1030.9 958.8
09 22.05 штиль 0 15 км 9/9 1050 м
[Cu Sc]
+3.2 +1.7 90 +2 +2 1030.3 957.8
12 22.05 штиль 0 15 км 6/3 1200 м
[Sc Ac As]
+3.3 +1.8 90 +2 +2 1031.5 958.9 +3.0 +5.2 0.0
15 22.05 штиль 0 15 км 4/3 1200 м
[Cu hum Ci]
+9.4 +2.6 62 +9 +15 1030.5 958.6
18 22.05 З 1 15 км 4/3 1200 м
[Cu hum Ci]
+12.4 +0.9 45 +13 +18 1026.9 955.7
21 22.05 С 2 15 км ясно +12.4 +0.3 43 +12 +13 1026.3 954.9
00 23.05 С 2 15 км ясно +7.4 0.0 59 +6 +6 1027.4 955.3 +3.0 +13.8
03 23.05 С 4 15 км ясно +6.6 -0.4 61 +4 +4 1026.6 955.2
06 23.05 С 3 15 км ясно +4.5 -1.6 65 +1 +1 1025.0 953.8
09 23.05 С 4 15 км ясно +2.0 -1.9 75 -3 -3 1023.9 952.5
12 23.05 С 3 15 км ясно +1.0 -4.4 67 -3 -3 1025.8 953.6 +0.5 +7.4
15 23.05 С 7 15 км ясно +14.0 -1.1 35 +12 +14 1024.0 953.4
18 23.05 С 7 15 км ясно +19.2 -7.3 16 +18 +21 1020.4 950.4
21 23.05 С 4 15 км ясно +19.0 -5.8 18 +19 +19 1019.2 949.0
00 24.05 З 2 15 км ясно +7.6 -3.0 47 +7 +7 1021.2 949.3 +1.0 +20.4
03 24.05 штиль 0 15 км ясно +4.6 -1.8 63 +4 +4 1019.8 919.2
06 24.05 штиль 0 15 км ясно +2.2 -1.6 76 +1 +1 1018.3 948.2
09 24.05 штиль 0 15 км 3/0
[Ac und]
+1.2 -4.9 64 +1 +1 1017.0 946.8
12 24.05 штиль 0 15 км 5/0
[Ac As]
+1.0 -3.0 75 0 0 1018.8 947.0 -1.0 +9.0
15 24.05 С 2 15 км 6/0
[Cs]
+16.3 -1.7 29 +17 +22 1015.8 945.8
18 24.05 Ю 3 15 км 8/0
[Cs]
+20.7 -2.6 21 +21 +26 комфорт 1012.5 942.9
21 24.05 Ю 5 15 км 8/0
[Cs]
+19.1 -3.6 21 +19 +19 1011.4 941.6
00 25.05 Ю 2 15 км ясно +10.2 +0.8 52 +9 +9 1014.3 943.2 +1.0 +21.0
03 25.05 штиль 0 15 км 4/0
[Cs]
+5.6 +0.7 71 +5 +5 1012.8 943.0
06 25.05 штиль 0 15 км 8/0
[Cs]
+5.0 -0.1 70 +4 +4 1011.9 942.6
09 25.05 С 2 15 км 9/0
[Cs]
+4.4 +0.9 78 +2 +2 1010.7 941.3
12 25.05 В 3 15 км 8/0
[Cs]
+3.6 -1.8 68 0 0 1012.0 941.4 +1.0 +10.2
15 25.05 Ю 3 15 км 8/0
[Cs]
+11.6 +1.0 48 +11 +15 1011.6 941.4
18 25.05 Ю 4 15 км 5/0
[Cs]
+16.2 -0.1 33 +16 +20 1007.7 938.2
21 25.05 Ю 3 15 км 5/0
[Cs]
+17.0 +1.6 35 +17 +17 1007.5 938.1
00 26.05 ЮЗ 2 15 км ясно +9.5 +1.9 59 +8 +8 1009.9 939.4 +3.6 +18.0
03 26.05 З 2 15 км ясно +6.0 +0.6 68 +4 +4 1009.5 939.4
06 26.05 Ю 2 15 км ясно +6.2 +0.2 65 +4 +4 1009.0 939.6
09 26.05 штиль 0 15 км ясно +1.8 -2.4 74 +1 +1 1010.9 941.0
12 26.05 Ю 2 15 км ясно +1.0 -1.2 85 -2 -2 1014.5 943.3 -0.5 +10.0
15 26.05 Ю 5 15 км ясно +13.8 +3.5 50 +12 +16 1014.8 944.6
18 26.05 Ю 6 15 км ясно +18.4 +2.4 34 +18 +20 1012.5 943.0
21 26.05 Ю 6 15 км 3/0
[Ci]
+17.7 +3.4 39 +17 +17 1013.2 943.2
00 27.05 Ю 3 15 км 5/0
[Cs]
+12.0 +2.7 53 +11 +11 1016.4 945.4 +1.0 +19.0

 

Местоположение метеостанции Сан-Хуан (Аргентина): широта -31.40 долгота -68.41 высота над уровнем моря 598 м.

В архиве по умолчанию представлена погода в Сан-Хуане за последнюю неделю. Архивные данные за месяц целиком и за предыдущие месяцы, начиная с января 2011 года, Вы можете получить, выбрав интересующий диапазон дат из раскрывающегося списка и нажав кнопку "Ввод!".


*Определитесь, кто Вы:
робот инопланетянин человек

Внимание! Время в таблицах - всемирное. Для получения местного времени необходимо прибавить поправку, которая равна -3 ч.

Смотрите также архив погоды в соседних городах и на ближайших метеорологических станциях:

Погода в Мендосе (Аргентина) (163 км)
Погода в Сан-Мартине (Аргентина) (187 км)
Погода на Пасо Лос Либертадорес (Чили) (228 км)
Погода в Чамикале (Аргентина) (234 км)
Погода в Монте-Патрии (Чили) (255 км)
Погода в Сантьяго Эль-Тололо (Чили) (266 км)
Погода в Викунье (Чили) (267 км)
Погода в Ла-Риохе (Аргентина) (272 км)
Погода в Овалье (Чили) (280 км)
Погода в Сан-Луисе (Аргентина) (283 км)

Пояснения к столбцам:

Ветер - указаны скорость ветра в м/с - средняя за 10 мин, порывы в срок и между сроками (в фигурных скобках) и направление, откуда дует ветер: С - северный, СВ - северо-восточный, В - восточный, ЮВ - юго-восточный, Ю - южный, ЮЗ - юго-западный, З - западный, СЗ - северо-западный.
Видимость - горизонтальная дальность видимости в метрах или километрах. При видимости от 1 до 10 км при отсутствии осадков обычно наблюдается дымка, при ухудшении видимости до 1 км и менее - туман. В сухую погоду видимость может ухудшаться дымом, пылью или мглою.
Явления - указаны атмосферные явления, наблюдавшиеся в срок или в последний час перед сроком; фигурными скобками обозначены явления, наблюдавшиеся между сроками (за 1-3 часа до срока); квадратными скобками обозначены град или гололедные отложения с указанием их диаметра в мм.
Облачность - указаны через наклонную черту общая и нижняя облачность в баллах и высота нижней границы облаков в метрах; квадратными скобками обозначены формы облаков: Ci - перистые, Cs - перисто-слоистые, Cc - перисто-кучевые, Ac - высококучевые, As - высокослоистые, Sc - слоисто-кучевые, Ns - слоисто-дождевые, Cu - кучевые, Cb - кучево-дождевые. Подробнее классификацию облаков см. в Атласе облаков (PDF).
T - Температура воздуха - температура, измеренная на высоте 2 м над землей.
Td - Температура точки росы - температура, при понижении до которой содержащийся в воздухе водяной пар достигнет насыщения.
f - Относительная влажность воздуха - влажноcть воздуха, измеренная на высоте 2 м над землей.
Te - Эффективная температура - температура, которую ощущает одетый по сезону человек в тени. Характеристика душности погоды. При расчете учитывается влияние влажности воздуха и скорости ветра на теплоощущения человека.
Tes - Эффективная температура на солнце - температура, которую ощущает человек, с поправкой на солнечный нагрев. Характеристика знойности погоды. Зависит от высоты солнца над горизонтом, облачности и скорости ветра. Ночью, в пасмурную погоду, а также при ветре 12 м/с и более поправка равна нулю.
P - Атмосферное давление - приведенное к уровню моря атмосферное давление.
Po - Атмосферное давление - измеренное на уровне метеостанции атмосферное давление.
Tmin - Минимальная температура - минимум температуры воздуха на высоте 2 м над землей.
Tmax - Максимальная температура - максимум температуры воздуха на высоте 2 м над землей.
R - Количество осадков - Количество выпавших осадков за период времени, мм. При наведении курсора мыши на число - период времени, за который выпало указанное количество осадков.
R24 - Количество осадков - Количество выпавших осадков за 24 часа, мм.
S - Снежный покров - Высота снежного покрова, см. При наведении курсора мыши на число - состояние снежного покрова и степень покрытия местности в баллах.